Location: Finch Observatory
(42.1604°N, 72.0115°W)
Time: 21:21:09
(UTC-04:00)

OTV 5 (USA 277) - Visible Passes

Search period start: 21 July 2018 00:00
Search period end: 31 July 2018 00:00
Orbit: 312 x 321 km, 54.5° (Epoch: 05 July)

Date Brightness Start Highest point End Pass type
(mag) Time Alt. Az. Time Alt. Az. Time Alt. Az.
28 Jul ? 04:21:59 10° SSE 04:23:07 12° SE 04:24:16 10° ESE visible
29 Jul ? 04:35:23 14° SSW 04:37:21 32° SE 04:39:49 10° ENE visible
30 Jul ? 04:49:27 13° SW 04:51:44 80° NW 04:54:26 10° NE visible
